DAL4522 SEGU-SPYL

Flight info

Callsign DAL4522
Flight time 0h 35m
Altitude 22000
Route PUNAS2A PUNAS DCT BES UV1 TAL
Aircraft B738/M-SDE2E3FGHIRWXY/LB1

Departure

Time 2026-04-28 16:39
Airport José Joaquín de Olmedo International Airport (SEGU)

Arrival

Time 2026-04-28 17:15
Airport Captain Victor Montes Arias International Airport (SPYL)
Time Latitude Longitude Altitude Speed Heading
2026-04-28 16:24 -2.14979 -79.88381 21 ft 0 kts 302°
2026-04-28 16:34 -2.14985 -79.88370 21 ft 2 kts 302°
2026-04-28 16:34 -2.14994 -79.88356 22 ft 2 kts 302°
2026-04-28 16:34 -2.15002 -79.88342 21 ft 2 kts 302°
2026-04-28 16:35 -2.15011 -79.88328 23 ft 2 kts 302°
2026-04-28 16:35 -2.15014 -79.88323 22 ft 0 kts 302°
2026-04-28 16:35 -2.15010 -79.88325 23 ft 1 kts 338°
2026-04-28 16:36 -2.14985 -79.88314 21 ft 8 kts 28°
2026-04-28 16:36 -2.14925 -79.88278 22 ft 11 kts 31°
2026-04-28 16:36 -2.14856 -79.88238 21 ft 11 kts 30°
2026-04-28 16:36 -2.14790 -79.88197 21 ft 11 kts 49°
2026-04-28 16:37 -2.14803 -79.88127 21 ft 11 kts 118°
2026-04-28 16:37 -2.14834 -79.88062 23 ft 10 kts 95°
2026-04-28 16:37 -2.14791 -79.88008 21 ft 10 kts 39°
2026-04-28 16:38 -2.14825 -79.87885 22 ft 10 kts 117°
2026-04-28 16:38 -2.14847 -79.87861 21 ft 6 kts 168°
2026-04-28 16:38 -2.14952 -79.87914 22 ft 46 kts 210°
2026-04-28 16:38 -2.15466 -79.88209 22 ft 122 kts 210°
2026-04-28 16:39 -2.16376 -79.88727 165 ft 172 kts 210°
2026-04-28 16:39 -2.17509 -79.89364 672 ft 201 kts 210°
2026-04-28 16:39 -2.18758 -79.90068 1361 ft 210 kts 210°
2026-04-28 16:39 -2.20063 -79.90810 1937 ft 222 kts 211°
2026-04-28 16:40 -2.21492 -79.91494 2464 ft 234 kts 191°
2026-04-28 16:40 -2.23149 -79.91603 3084 ft 246 kts 182°
2026-04-28 16:40 -2.24894 -79.91645 3845 ft 254 kts 182°
2026-04-28 16:40 -2.26671 -79.91691 4730 ft 257 kts 182°
2026-04-28 16:41 -2.28466 -79.91746 5607 ft 260 kts 182°
2026-04-28 16:41 -2.30284 -79.91807 6450 ft 263 kts 182°
2026-04-28 16:41 -2.32130 -79.91875 7286 ft 267 kts 182°
2026-04-28 16:41 -2.33993 -79.91948 8104 ft 270 kts 182°
2026-04-28 16:42 -2.35886 -79.92025 8913 ft 274 kts 182°
2026-04-28 16:42 -2.37798 -79.92104 9706 ft 277 kts 182°
2026-04-28 16:42 -2.39733 -79.92186 10483 ft 280 kts 183°
2026-04-28 16:42 -2.41695 -79.92270 11244 ft 284 kts 183°
2026-04-28 16:43 -2.43739 -79.92358 11556 ft 306 kts 183°
2026-04-28 16:43 -2.45953 -79.92454 11749 ft 330 kts 183°
2026-04-28 16:43 -2.48293 -79.92556 11962 ft 351 kts 182°
2026-04-28 16:43 -2.50768 -79.92664 12482 ft 360 kts 182°
2026-04-28 16:44 -2.53283 -79.92773 13187 ft 363 kts 182°
2026-04-28 16:44 -2.55820 -79.92884 13920 ft 366 kts 182°
2026-04-28 16:44 -2.58376 -79.92995 14606 ft 370 kts 182°
2026-04-28 16:44 -2.60960 -79.93108 15277 ft 374 kts 182°
2026-04-28 16:45 -2.63567 -79.93221 15919 ft 377 kts 182°
2026-04-28 16:45 -2.66205 -79.93337 16559 ft 381 kts 182°
2026-04-28 16:45 -2.68864 -79.93453 17166 ft 384 kts 182°
2026-04-28 16:45 -2.71549 -79.93570 17760 ft 388 kts 182°
2026-04-28 16:46 -2.74260 -79.93689 18349 ft 391 kts 182°
2026-04-28 16:46 -2.76995 -79.93809 18928 ft 395 kts 184°
2026-04-28 16:46 -2.79697 -79.94305 19441 ft 398 kts 201°
2026-04-28 16:46 -2.82160 -79.95580 20014 ft 400 kts 210°
2026-04-28 16:47 -2.84557 -79.97016 20551 ft 403 kts 211°
2026-04-28 16:47 -2.86960 -79.98488 21036 ft 407 kts 212°
2026-04-28 16:47 -2.89388 -79.99977 21518 ft 410 kts 211°
2026-04-28 16:47 -2.91831 -80.01466 21988 ft 413 kts 211°
2026-04-28 16:48 -2.94293 -80.02955 21984 ft 413 kts 211°
2026-04-28 16:48 -2.96742 -80.04428 21994 ft 409 kts 211°
2026-04-28 16:48 -2.99183 -80.05890 22000 ft 409 kts 211°
2026-04-28 16:48 -3.01627 -80.07351 22010 ft 410 kts 211°
2026-04-28 16:49 -3.04080 -80.08817 22009 ft 411 kts 211°
2026-04-28 16:49 -3.06540 -80.10286 22007 ft 411 kts 211°
2026-04-28 16:49 -3.08970 -80.11737 22004 ft 412 kts 211°
2026-04-28 16:49 -3.11426 -80.13204 22001 ft 412 kts 211°
2026-04-28 16:50 -3.13888 -80.14675 22001 ft 411 kts 211°
2026-04-28 16:50 -3.16345 -80.16144 22001 ft 411 kts 211°
2026-04-28 16:50 -3.18797 -80.17609 22001 ft 411 kts 211°
2026-04-28 16:50 -3.21251 -80.19075 22001 ft 410 kts 211°
2026-04-28 16:51 -3.23700 -80.20539 22001 ft 410 kts 211°
2026-04-28 16:51 -3.26146 -80.22002 22001 ft 409 kts 211°
2026-04-28 16:51 -3.28589 -80.23462 22002 ft 409 kts 211°
2026-04-28 16:51 -3.31035 -80.24924 22002 ft 409 kts 211°
2026-04-28 16:52 -3.33478 -80.26385 22009 ft 409 kts 211°
2026-04-28 16:52 -3.35921 -80.27846 22002 ft 409 kts 211°
2026-04-28 16:52 -3.38367 -80.29308 21999 ft 410 kts 211°
2026-04-28 16:52 -3.40813 -80.30771 22002 ft 410 kts 211°
2026-04-28 16:53 -3.43259 -80.32234 21999 ft 410 kts 211°
2026-04-28 16:53 -3.45303 -80.33457 22002 ft 410 kts 211°
2026-04-28 16:53 -3.47749 -80.34920 22000 ft 410 kts 211°
2026-04-28 16:53 -3.50185 -80.36377 22004 ft 405 kts 211°
2026-04-28 16:54 -3.52568 -80.37830 21989 ft 398 kts 214°
2026-04-28 16:54 -3.54717 -80.39555 22000 ft 396 kts 223°
2026-04-28 16:54 -3.56556 -80.41613 22002 ft 397 kts 232°
2026-04-28 16:54 -3.57661 -80.43070 21979 ft 398 kts 233°
2026-04-28 16:55 -3.59853 -80.46035 21335 ft 399 kts 233°
2026-04-28 16:55 -3.61515 -80.48302 20819 ft 397 kts 233°
2026-04-28 16:55 -3.63126 -80.50491 20351 ft 393 kts 233°
2026-04-28 16:55 -3.64746 -80.52679 19875 ft 390 kts 233°
2026-04-28 16:56 -3.66357 -80.54847 19407 ft 386 kts 233°
2026-04-28 16:56 -3.67960 -80.56996 18938 ft 383 kts 233°
2026-04-28 16:56 -3.69549 -80.59122 18476 ft 379 kts 233°
2026-04-28 16:56 -3.71125 -80.61228 18018 ft 376 kts 233°
2026-04-28 16:57 -3.72686 -80.63315 17566 ft 373 kts 233°
2026-04-28 16:57 -3.74238 -80.65388 17116 ft 370 kts 233°
2026-04-28 16:57 -3.75774 -80.67440 16670 ft 367 kts 233°
2026-04-28 16:57 -3.77301 -80.69480 16226 ft 364 kts 233°
2026-04-28 16:58 -3.78812 -80.71500 15787 ft 361 kts 233°
2026-04-28 16:58 -3.80314 -80.73507 15351 ft 359 kts 233°
2026-04-28 16:58 -3.81804 -80.75499 14916 ft 356 kts 233°
2026-04-28 16:58 -3.83284 -80.77476 14485 ft 353 kts 233°
2026-04-28 16:59 -3.84752 -80.79439 14057 ft 351 kts 233°
2026-04-28 16:59 -3.86207 -80.81384 13632 ft 348 kts 233°
2026-04-28 16:59 -3.87638 -80.83297 13223 ft 346 kts 233°
2026-04-28 16:59 -3.89074 -80.85218 12805 ft 344 kts 233°
2026-04-28 17:00 -3.90507 -80.87133 12376 ft 343 kts 233°
2026-04-28 17:00 -3.91932 -80.89039 11952 ft 341 kts 233°
2026-04-28 17:00 -3.93335 -80.90916 11756 ft 328 kts 233°
2026-04-28 17:00 -3.94666 -80.92695 11600 ft 311 kts 233°
2026-04-28 17:01 -3.95929 -80.94384 11464 ft 295 kts 233°
2026-04-28 17:01 -3.97133 -80.95996 11357 ft 286 kts 233°
2026-04-28 17:01 -3.98319 -80.97581 11254 ft 283 kts 233°
2026-04-28 17:01 -3.99499 -80.99161 11149 ft 282 kts 233°
2026-04-28 17:02 -4.00672 -81.00730 11017 ft 279 kts 233°
2026-04-28 17:02 -4.01435 -81.01751 10867 ft 276 kts 233°
2026-04-28 17:02 -4.02971 -81.03806 10494 ft 274 kts 233°
2026-04-28 17:02 -4.04109 -81.05328 10222 ft 272 kts 233°
2026-04-28 17:03 -4.06364 -81.08345 9674 ft 269 kts 233°
2026-04-28 17:03 -4.07482 -81.09842 9400 ft 267 kts 233°
2026-04-28 17:03 -4.08594 -81.11330 9127 ft 266 kts 233°
2026-04-28 17:04 -4.10799 -81.14280 8585 ft 263 kts 233°
2026-04-28 17:04 -4.11893 -81.15745 8315 ft 262 kts 233°
2026-04-28 17:05 -4.14061 -81.18647 7772 ft 259 kts 233°
2026-04-28 17:05 -4.15137 -81.20088 7511 ft 258 kts 233°
2026-04-28 17:05 -4.16208 -81.21522 7239 ft 257 kts 233°
2026-04-28 17:06 -4.18316 -81.24346 6688 ft 249 kts 233°
2026-04-28 17:06 -4.19341 -81.25719 6415 ft 243 kts 233°
2026-04-28 17:06 -4.21248 -81.28273 6198 ft 216 kts 233°
2026-04-28 17:07 -4.21833 -81.29055 6135 ft 208 kts 233°
2026-04-28 17:07 -4.22680 -81.30189 6092 ft 200 kts 233°
2026-04-28 17:07 -4.23508 -81.31298 6041 ft 198 kts 233°
2026-04-28 17:07 -4.24355 -81.32397 5932 ft 202 kts 225°
2026-04-28 17:08 -4.25593 -81.33029 5679 ft 205 kts 184°
2026-04-28 17:08 -4.26994 -81.32808 5516 ft 205 kts 165°
2026-04-28 17:08 -4.28376 -81.32433 5277 ft 204 kts 165°
2026-04-28 17:08 -4.29724 -81.32068 5036 ft 198 kts 165°
2026-04-28 17:09 -4.31044 -81.31711 4834 ft 196 kts 166°
2026-04-28 17:09 -4.32364 -81.31355 4618 ft 197 kts 166°
2026-04-28 17:09 -4.33687 -81.31000 4418 ft 197 kts 166°
2026-04-28 17:09 -4.35011 -81.30645 4208 ft 197 kts 166°
2026-04-28 17:10 -4.36339 -81.30290 3994 ft 198 kts 166°
2026-04-28 17:10 -4.37669 -81.29935 3782 ft 198 kts 166°
2026-04-28 17:10 -4.39005 -81.29579 3559 ft 199 kts 166°
2026-04-28 17:10 -4.40340 -81.29223 3354 ft 199 kts 166°
2026-04-28 17:11 -4.41679 -81.28866 3125 ft 199 kts 166°
2026-04-28 17:11 -4.42989 -81.28517 2913 ft 191 kts 166°
2026-04-28 17:11 -4.44242 -81.28184 2687 ft 182 kts 166°
2026-04-28 17:11 -4.45437 -81.27866 2494 ft 173 kts 166°
2026-04-28 17:12 -4.46589 -81.27559 2267 ft 171 kts 166°
2026-04-28 17:12 -4.47712 -81.27260 2075 ft 161 kts 166°
2026-04-28 17:12 -4.48776 -81.26977 1826 ft 155 kts 166°
2026-04-28 17:12 -4.49809 -81.26703 1649 ft 155 kts 166°
2026-04-28 17:13 -4.50865 -81.26502 1452 ft 157 kts 172°
2026-04-28 17:13 -4.51947 -81.26330 1234 ft 157 kts 172°
2026-04-28 17:13 -4.53010 -81.26172 1021 ft 153 kts 173°
2026-04-28 17:13 -4.54062 -81.26021 801 ft 152 kts 171°
2026-04-28 17:14 -4.55106 -81.25854 622 ft 152 kts 172°
2026-04-28 17:14 -4.56146 -81.25671 421 ft 152 kts 170°
2026-04-28 17:14 -4.57182 -81.25492 286 ft 145 kts 170°
2026-04-28 17:14 -4.57978 -81.25350 294 ft 77 kts 170°
2026-04-28 17:15 -4.58311 -81.25291 290 ft 38 kts 169°
2026-04-28 17:15 -4.58553 -81.25247 290 ft 28 kts 170°
2026-04-28 17:15 -4.58695 -81.25216 293 ft 15 kts 143°
2026-04-28 17:15 -4.58673 -81.25142 292 ft 13 kts 34°
2026-04-28 17:16 -4.58600 -81.25094 291 ft 13 kts 33°
2026-04-28 17:16 -4.58505 -81.25081 294 ft 17 kts 350°
2026-04-28 17:16 -4.58372 -81.25104 290 ft 22 kts 350°
2026-04-28 17:16 -4.58208 -81.25134 291 ft 25 kts 349°
2026-04-28 17:17 -4.58035 -81.25165 288 ft 25 kts 349°
2026-04-28 17:17 -4.57872 -81.25195 288 ft 23 kts 349°
2026-04-28 17:17 -4.57717 -81.25222 294 ft 22 kts 350°
2026-04-28 17:17 -4.57573 -81.25247 287 ft 17 kts 350°
2026-04-28 17:18 -4.57540 -81.25338 287 ft 16 kts 261°
2026-04-28 17:18 -4.57558 -81.25453 286 ft 17 kts 261°
2026-04-28 17:18 -4.57567 -81.25566 287 ft 12 kts 295°